Terminal Aerodrome Forecast
Issued by NWS Pendleton, OR

Home | Current Version | Previous Version | Text Only | Print | Product List | Glossary On
Versions: 1 2 3 4 5 6 7 8 9 10 11 12 13 14
000
FTUS46 KPDT 260539
TAFPDT
TAF
KPDT 260539Z 2606/2706 28007KT P6SM SKC
     FM260800 15007KT P6SM SKC
     FM262000 24007KT P6SM FEW100
     FM270400 15007KT P6SM SKC=

USA.gov is the U.S. government's official web portal to all federal, state and local government web resources and services.